TimeCEST,TemperatureF,Dew PointF,Humidity,Sea Level PressureIn,VisibilityMPH,Wind Direction,Wind SpeedMPH,Gust SpeedMPH,PrecipitationIn,Events,Conditions,WindDirDegrees,DateUTC
12:25 AM,62.6,53.6,72,30.24,6.2,WSW,9.2,-,N/A,,Unknown,240,2013-09-01 22:25:00
12:55 AM,62.6,53.6,72,30.24,6.2,WSW,10.4,-,N/A,,Unknown,240,2013-09-01 22:55:00
1:25 AM,62.6,53.6,72,30.24,6.2,WSW,10.4,-,N/A,,Partly Cloudy,240,2013-09-01 23:25:00
1:55 AM,60.8,55.4,82,30.21,6.2,WSW,11.5,-,N/A,,Unknown,240,2013-09-01 23:55:00
2:00 AM,62,55,70,30.24,14,WSW,11.2,,,,Partly Cloudy,240,2013-09-02 00:00:00
2:25 AM,62.6,55.4,77,30.24,6.2,West,8.1,-,N/A,,Overcast,280,2013-09-02 00:25:00
2:55 AM,60.8,55.4,82,30.24,6.2,NW,6.9,-,N/A,,Mostly Cloudy,310,2013-09-02 00:55:00
3:25 AM,57.2,53.6,88,30.24,6.2,NW,4.6,-,N/A,,Mostly Cloudy,310,2013-09-02 01:25:00
3:55 AM,57.2,53.6,88,30.21,6.2,West,4.6,-,N/A,,Scattered Clouds,270,2013-09-02 01:55:00
4:25 AM,57.2,53.6,88,30.21,6.2,West,5.8,-,N/A,,Mostly Cloudy,270,2013-09-02 02:25:00
4:55 AM,59.0,53.6,82,30.21,6.2,West,8.1,-,N/A,,Overcast,270,2013-09-02 02:55:00
5:00 AM,58,52,73,30.23,12,West,8.9,,,,Scattered Clouds,270,2013-09-02 03:00:00
5:25 AM,57.2,51.8,82,30.21,6.2,West,6.9,-,N/A,,Unknown,270,2013-09-02 03:25:00
5:55 AM,57.2,51.8,82,30.21,6.2,West,8.1,-,N/A,,Mostly Cloudy,260,2013-09-02 03:55:00
6:25 AM,57.2,51.8,82,30.21,6.2,West,8.1,-,N/A,,Scattered Clouds,270,2013-09-02 04:25:00
6:55 AM,59.0,51.8,77,30.21,6.2,West,8.1,-,N/A,,Overcast,280,2013-09-02 04:55:00
7:25 AM,59.0,51.8,77,30.21,6.2,West,9.2,-,N/A,,Overcast,280,2013-09-02 05:25:00
7:55 AM,60.8,53.6,77,30.21,6.2,West,10.4,-,N/A,,Mostly Cloudy,270,2013-09-02 05:55:00
8:25 AM,60.8,53.6,77,30.21,6.2,West,10.4,-,N/A,,Overcast,270,2013-09-02 06:25:00
8:55 AM,60.8,55.4,82,30.21,6.2,West,11.5,-,N/A,,Mostly Cloudy,280,2013-09-02 06:55:00
9:25 AM,60.8,55.4,82,30.21,6.2,West,12.7,-,N/A,,Light Drizzle,280,2013-09-02 07:25:00
9:55 AM,62.6,55.4,77,30.21,6.2,West,12.7,-,N/A,,Mostly Cloudy,280,2013-09-02 07:55:00
10:25 AM,64.4,57.2,77,30.24,6.2,West,13.8,-,N/A,,Mostly Cloudy,270,2013-09-02 08:25:00
10:55 AM,64.4,57.2,77,30.24,6.2,West,15.0,-,N/A,,Mostly Cloudy,270,2013-09-02 08:55:00
11:00 AM,65,58,70,30.25,11,West,13.4,,,,Partly Cloudy,270,2013-09-02 09:00:00
11:25 AM,66.2,57.2,73,30.24,6.2,West,13.8,-,N/A,,Mostly Cloudy,270,2013-09-02 09:25:00
11:55 AM,64.4,57.2,77,30.24,6.2,West,12.7,-,N/A,,Overcast,280,2013-09-02 09:55:00
12:25 PM,66.2,59.0,78,30.24,6.2,West,11.5,-,N/A,,Overcast,270,2013-09-02 10:25:00
12:55 PM,64.4,57.2,77,30.24,6.2,West,13.8,-,N/A,,Overcast,270,2013-09-02 10:55:00
1:25 PM,64.4,57.2,77,30.24,6.2,West,13.8,-,N/A,,Overcast,270,2013-09-02 11:25:00
1:55 PM,64.4,57.2,77,30.24,6.2,West,13.8,-,N/A,,Overcast,260,2013-09-02 11:55:00
2:25 PM,66.2,59.0,78,30.24,6.2,West,12.7,-,N/A,,Overcast,260,2013-09-02 12:25:00
2:55 PM,64.4,57.2,77,30.27,6.2,West,15.0,-,N/A,,Overcast,260,2013-09-02 12:55:00
3:25 PM,64.4,57.2,77,30.27,6.2,West,11.5,-,N/A,,Overcast,270,2013-09-02 13:25:00
3:55 PM,66.2,57.2,73,30.27,6.2,West,12.7,-,N/A,,Overcast,270,2013-09-02 13:55:00
4:25 PM,66.2,59.0,78,30.27,6.2,West,12.7,-,N/A,,Overcast,260,2013-09-02 14:25:00
4:55 PM,66.2,59.0,78,30.27,6.2,West,11.5,-,N/A,,Overcast,270,2013-09-02 14:55:00
5:00 PM,67,59,67,30.28,12,West,11.2,,,,Overcast,270,2013-09-02 15:00:00
5:25 PM,68.0,59.0,73,30.27,6.2,West,10.4,-,N/A,,Overcast,270,2013-09-02 15:25:00
5:55 PM,66.2,59.0,78,30.27,6.2,West,12.7,-,N/A,,Overcast,270,2013-09-02 15:55:00
6:25 PM,66.2,59.0,78,30.27,6.2,West,9.2,-,N/A,,Unknown,270,2013-09-02 16:25:00
6:55 PM,68.0,59.0,73,30.24,6.2,West,9.2,-,N/A,,Unknown,270,2013-09-02 16:55:00
7:25 PM,66.2,59.0,78,30.24,6.2,West,9.2,-,N/A,,Unknown,260,2013-09-02 17:25:00
7:55 PM,64.4,59.0,83,30.27,6.2,West,9.2,-,N/A,,Unknown,260,2013-09-02 17:55:00
8:00 PM,65,59,75,30.27,11,WSW,8.9,,,,Partly Cloudy,250,2013-09-02 18:00:00
8:25 PM,64.4,59.0,83,30.27,6.2,WSW,6.9,-,N/A,,Unknown,250,2013-09-02 18:25:00
8:55 PM,62.6,59.0,88,30.27,6.2,WSW,8.1,-,N/A,,Unknown,250,2013-09-02 18:55:00
9:25 PM,62.6,59.0,88,30.27,6.2,WSW,8.1,-,N/A,,Unknown,250,2013-09-02 19:25:00
9:55 PM,60.8,59.0,94,30.27,6.2,WSW,6.9,-,N/A,,Unknown,240,2013-09-02 19:55:00
10:25 PM,62.6,59.0,88,30.30,6.2,WSW,5.8,-,N/A,,Unknown,250,2013-09-02 20:25:00
10:55 PM,60.8,59.0,94,30.30,6.2,WSW,6.9,-,N/A,,Unknown,250,2013-09-02 20:55:00
11:00 PM,60,58,92,30.32,8,WSW,6.7,,,,,240,2013-09-02 21:00:00
11:25 PM,59.0,57.2,94,30.30,6.2,SW,4.6,-,N/A,,Unknown,230,2013-09-02 21:25:00
11:55 PM,57.2,57.2,100,30.30,6.2,SW,5.8,-,N/A,,Unknown,220,2013-09-02 21:55:00